Regional Weather Roundup
Issued by NWS Portland, ME

Home | Current Version | Previous Version | Text Only | Print | Product List | Glossary On
Versions: 1 2 3 4 5 6 7 8 9 10 11 12 13 14 15 16 17 18 19 20 21 22 23 24 25 26 27 28 29 30 31 32 33 34 35 36 37 38 39 40 41 42 43 44 45 46 47 48 49 50
000
ASUS41 KGYX 271405
RWRGYX
WEATHER ROUNDUP FOR MAINE AND NEW HAMPSHIRE
NATIONAL WEATHER SERVICE GRAY ME
900 AM EST FRI FEB 27 2015

MEZ002-005-006-010-012-015-018-020-021-024-026-027-029-271500-
MAINE

CITY           SKY/WX    TMP DP  RH WIND       PRES   REMARKS
PORTLAND       SUNNY     15  -9  33 N5        30.33R
SANFORD        SUNNY     10  -4  52 CALM      30.31R
BAR HARBOR     SUNNY     14  -6  41 N5        30.31R
WISCASSET      SUNNY     15 -10  32 VRB6      30.32S
ROCKLAND       SUNNY     12  -8  40 NW6       30.30S
FRYEBURG       MOSUNNY   13  -7  40 E3        30.28R
LEWISTONAUBURN MOSUNNY   12  -6  44 N10       30.28S WCI  -1
AUGUSTA        MOSUNNY   11 -10  38 NW9       30.29R
WATERVILLE     SUNNY      9  -9  43 CALM      30.26R
BANGOR         MOSUNNY    8  -9  45 N5        30.30R
GREENVILLE       N/A      6 -10  47 NW9       30.11S
MILLINOCKET    SUNNY      7  -9  48 NW9       30.25R
HOULTON        SUNNY      2 -12  52 W7        30.20R
PRESQUE ISLE   SUNNY      1 -31  20 CALM      30.19R
FRENCHVILLE    SUNNY     -6 -14  68 SW6       30.10R
CARIBOU        SUNNY      0 -11  59 SW8       30.16R
$$

NHZ002-005-008-009-011-012-014-271500-
NEW HAMPSHIRE

CITY           SKY/WX    TMP DP  RH WIND       PRES   REMARKS
PORTSMOUTH     MOSUNNY   12  -5  47 NW8       30.32R
ROCHESTER      SUNNY     12  -6  44 NW7       30.30R
NASHUA         SUNNY     14 -10  33 NW13      30.35R WCI   0
MANCHESTER     SUNNY     13  -7  40 NW9       30.32R
CONCORD        SUNNY     12  -9  38 NW9       30.32R
LACONIA        SUNNY     12  -8  40 SW9       30.26R
PLYMOUTH       FAIR      10  -5  48 W12       30.30R WCI  -4
BERLIN         SUNNY     -2 -10  69 CALM      30.24R
WHITEFIELD     SUNNY      1 -10  60 CALM      30.27R
JAFFREY        SUNNY     10 -11  38 VRB3      30.26R
KEENE          SUNNY      9  -6  52 N6        30.33R
LEBANON        SUNNY      5  -9  52 CALM      30.33R
MT WASHINGTON  MOSUNNY   -9 -17  70 NW36        N/A  WCI -41
$$

VTZ005-007-008-271500-
VERMONT

CITY           SKY/WX    TMP DP  RH WIND       PRES   REMARKS
ST JOHNSBURY     N/A     -3 -12  65 MISG      30.32R
MONTPELIER     SUNNY      1 -10  60 CALM      30.31R
BURLINGTON     SUNNY      3  -9  57 CALM      30.38R
$$

MAZ007-012-024-CTZ003-RIZ002-NYZ038-NYZ072-271500-
SOUTHERN NEW ENGLAND AND NY

CITY           SKY/WX    TMP DP  RH WIND       PRES   REMARKS
BOSTON         MOSUNNY   17  -5  37 W13       30.34R WCI   4
WORCESTER      SUNNY     13  -4  46 NW12      30.26R WCI  -1
NANTUCKET      SUNNY     24   9  52 N14       30.30R WCI  12
PROVIDENCE     MOSUNNY   18   1  47 N9        30.34R
HARTFORD       MOSUNNY   17   1  49 N5        30.36R
ALBANY         SUNNY     11  -3  53 N9        30.41R
NEW YORK CITY  MOSUNNY   20   6  55 NW14      30.39R WCI   7
$$

ANZ081-ANZ082-ANZ150-NHZ014-MEZ023>029-271500-
COASTAL MARINE OBSERVATIONS

STATION/POSITION TIME  TEMP    WIND        PRES    WAVE
                       AIR SEA DIR/SP/G            HT/PER
                 (UTC) (F)     (DEG/KT/KT) (MB)    (FT/S)
MOUNT DESERT ROC 1400   13                 1025.9R
MATINICUS ROCK   1300   13     360/ 16/ 18 1025.8R
WELLS            1312   13      10/  6/  8 1025.9R
ISLE OF SHOALS   1300   14     340/ 14/ 17 1025.6R
CASHES LEDGE BUO 1350   19 39              1025.5R   5/10
$$

.............KEY..............
   WCI - WIND CHILL
   TC  - TEMPERATURE IN CELSIUS
   VSB - VISIBILITY IN MILES
   HX  - HEAT INDEX
   FAIR- INDICATES FEW OR NO CLOUDS BELOW 12,000 FT, WITH NO
         SIGNIFICANT WEATHER AND/OR OBSTRUCTIONS TO VISIBILITY.




USA.gov is the U.S. government's official web portal to all federal, state and local government web resources and services.